This is the latest recevied weather packets stored in our database for station/object DK6GC-10. If no packets are shown the sender has not sent any weather packets the latest 10 day(s).
| Time | Temp. | Humidity | Pressure | Rain* | Wind** | Luminosity | Snow |
|---|---|---|---|---|---|---|---|
| 1777209322 | 21.11° C | 35% | 1022.2 hPa | - | - | - | - |
| 1777208421 | 20.56° C | 34% | 1022.2 hPa | - | - | - | - |
| 1777207521 | 21.11° C | 33% | 1022.3 hPa | - | - | - | - |
| 1777206621 | 20.56° C | 36% | 1022.5 hPa | - | - | - | - |
| 1777205721 | 20° C | 35% | 1022.5 hPa | - | - | - | - |
| 1777204826 | 20° C | 35% | 1022.6 hPa | - | - | - | - |
| 1777203926 | 20° C | 36% | 1022.6 hPa | - | - | - | - |
| 1777203026 | 20° C | 37% | 1022.7 hPa | - | - | - | - |
| 1777202126 | 19.44° C | 38% | 1022.8 hPa | - | - | - | - |
| 1777201226 | 19.44° C | 38% | 1022.9 hPa | - | - | - | - |
| 1777200325 | 19.44° C | 41% | 1023.1 hPa | - | - | - | - |
| 1777199425 | 18.89° C | 39% | 1023.1 hPa | - | - | - | - |
| 1777198525 | 18.33° C | 39% | 1023.1 hPa | - | - | - | - |
| 1777197625 | 18.33° C | 40% | 1023.2 hPa | - | - | - | - |
| 1777196725 | 17.78° C | 43% | 1023.3 hPa | - | - | - | - |
| 1777195825 | 17.22° C | 44% | 1023.3 hPa | - | - | - | - |
| 1777194924 | 15.56° C | 45% | 1023.3 hPa | - | - | - | - |
| 1777194023 | 17.22° C | 44% | 1023.4 hPa | - | - | - | - |
| 1777193123 | 16.67° C | 46% | 1023.4 hPa | - | - | - | - |
| 1777192223 | 16.11° C | 45% | 1023.3 hPa | - | - | - | - |
| 1777191323 | 16.11° C | 47% | 1023.4 hPa | - | - | - | - |
| 1777190422 | 15.56° C | 48% | 1023.3 hPa | - | - | - | - |
| 1777189522 | 14.44° C | 51% | 1023.3 hPa | - | - | - | - |
| 1777188621 | 13.89° C | 49% | 1023.4 hPa | - | - | - | - |
| 1777187721 | 12.22° C | 50% | 1023.4 hPa | - | - | - | - |
* Rain since midnight (hover to see other rain measurements)
** Current wind speed in m/s (hover to see current wind gust speed)